Regional Weather Roundup
Issued by NWS Upton, NY

Current Version | Previous Version | Text Only | Print | Product List | Glossary On
Versions: 1 2 3 4 5 6 7 8 9 10 11 12 13 14 15 16 17 18 19 20 21 22 23 24 25 26 27 28 29 30 31 32 33 34 35 36 37 38 39 40 41 42 43 44 45 46 47 48 49 50
796 ASUS41 KOKX 110104 RWROKX REGIONAL WEATHER ROUNDUP NATIONAL WEATHER SERVICE NEW YORK NY 800 PM EST WED FEB 10 2016 NOTE: "FAIR" INDICATES FEW OR NO CLOUDS BELOW 12,000 FEET WITH NO SIGNIFICANT WEATHER AND/OR OBSTRUCTIONS TO VISIBILITY. NYZ071-072-176-178-NJZ106-104-110200- NEW YORK CITY METRO AREA CITY SKY/WX TMP DP RH WIND PRES REMARKS CENTRAL PARK CLEAR 33 16 49 VRB5G21 29.74S WCI 29 LAGUARDIA APRT PTCLDY 35 16 45 W20 29.72R WCI 24 KENNEDY INTL PTCLDY 34 18 52 W20G26 29.74S WCI 23 NEWARK/LIBERTY PTCLDY 33 16 49 W17G28 29.73S WCI 22 BRNX BOT. GARD N/A 32 18 55 W9 29.71F WCI 24 TETERBORO PTCLDY 33 16 49 W10 29.71S WCI 25 $$ NYZ177-179-078>081-110200- LONG ISLAND NEW YORK CITY SKY/WX TMP DP RH WIND PRES REMARKS FARMINGDALE PTCLDY 34 18 52 W13 29.71S WCI 25 ISLIP PTCLDY 33 19 56 W13 29.69R WCI 24 SHIRLEY CLEAR 33 21 61 W8 29.70R WCI 26 RIVERHEAD N/A 32 19 59 W2 29.67R WESTHAMPTON CLEAR 32 20 61 W6 29.70R WCI 26 EAST HAMPTON FAIR 32 22 64 W6 29.67S WCI 27 MONTAUK POINT N/A 36 25 64 SW8 29.67R WCI 30 $$ NYZ052-065-067-110200- HUDSON VALLEY CITY SKY/WX TMP DP RH WIND PRES REMARKS WHITE PLAINS MOCLDY 34 18 52 W6 29.67S WCI 29 NEWBURGH MOCLDY 32 25 74 W9 29.68S WCI 24 MONTGOMERY CLOUDY 33 19 56 W8G21 29.68R WCI 26 POUGHKEEPSIE CLOUDY 34 19 54 W7 29.68S WCI 28 ALBANY MOCLDY 30 20 66 W8 29.67R WCI 22 $$ NJZ001-105-106-008-010-013-015-019>022-104-110200- NEW JERSEY CITY SKY/WX TMP DP RH WIND PRES REMARKS NEWARK/LIBERTY PTCLDY 33 16 49 W17G28 29.73S WCI 22 TETERBORO PTCLDY 33 16 49 W10 29.71S WCI 25 CALDWELL MOCLDY 32 15 49 W3 29.73R MORRISTOWN PTCLDY 30 19 64 W10 29.74R WCI 21 SOMERVILLE PTCLDY 31 16 54 W5 29.74S WCI 26 SUSSEX CLOUDY 31 17 56 VRB7 29.70R WCI 24 ANDOVER N/A 29 17 61 VRB7 29.72R WCI 22 TRENTON PTCLDY 30 15 53 W7 29.77R WCI 23 MILLVILLE MOCLDY 31 16 54 NW9 29.81F WCI 23 ATLANTIC CITY CLOUDY 31 15 52 W8 29.80F WCI 23 WRIGHTSTOWN PTCLDY 31 17 56 W12 29.75S WCI 21 TOMS RIVER PTCLDY 30 16 55 W8 29.79R WCI 23 BELMAR CLEAR 30 12 47 W10 29.76R WCI 21 $$ PAZ047>061-062-071-110200- EASTERN PENNSYLVANIA CITY SKY/WX TMP DP RH WIND PRES REMARKS PHILADELPHIA CLOUDY 32 13 45 W15 29.82S WCI 22 ALLENTOWN CLOUDY 29 15 56 W13G18 29.76S WCI 19 SCRANTON CLOUDY 26 16 65 SW14 29.71R WCI 14 $$ CTZ002-004>006-009-010-012-RIZ004-006-007-MAZ004-011-015-110200- SOUTHERN NEW ENGLAND IN CT CITY SKY/WX TMP DP RH WIND PRES REMARKS BRADLEY INTL MOCLDY 30 25 81 W3 29.65R HARTFORD CLOUDY 34 24 67 NW5 29.67R WCI 30 DANBURY CLEAR 30 15 53 W5 29.68R WCI 25 WTRBRY/OXFORD PTCLDY 30 12 47 W5 29.66R WCI 25 BRIDGEPORT CLEAR 33 21 61 W6 29.69R WCI 28 MERIDEN PTCLDY 29 21 72 CALM 29.67R NEW HAVEN CLEAR 35 21 56 W7 29.68R WCI 29 CHESTER CLOUDY 32 21 64 W5 29.66R WCI 27 GROTON MOCLDY 35 24 64 W7 29.66R WCI 29 WILLIMANTIC CLOUDY 34 23 64 W5 29.66R WCI 30 IN RI CITY SKY/WX TMP DP RH WIND PRES REMARKS PROVIDENCE MOCLDY 31 26 82 W7 29.65R WCI 24 BLOCK ISLAND MOCLDY 37 25 60 W12G22 29.64R WCI 30 WESTERLY PTCLDY 33 29 85 W5 29.66S WCI 29 IN MA CITY SKY/WX TMP DP RH WIND PRES REMARKS BOSTON MOCLDY 35 27 72 W12 29.62R WCI 27 WORCESTER PTCLDY 27 24 89 W8 29.58S WCI 19 WESTFIELD PTCLDY 29 21 72 W3 29.65R PROVINCETOWN CLOUDY 34 31 88 W12 29.62S WCI 25 NANTUCKET PTCLDY 35 31 85 W7 29.63S WCI 29 $$ ANZ330-335-338-340-345-350-353-355-110200- COASTAL MARINE OBSERVATIONS STATION/POSITION TIME SKY/WX TEMP WIND PRES VSBY WAVE AIR SEA DIR/SP/G HT/PER (UTC) (F) (DEG/KT/KT) (MB) (MI) (FT/S) NY HARB ENTRANCE 2350 36 43 270/ 23/ 29 1005.8 4/12 4S FIRE IS NOT AVBL 20S FIRE ISLAND 2350 37 44 280/ 21/ 25 1005.7 6/ 5 GREAT SOUTH BAY NOT AVBL 23SW MTP 2350 39 45 280/ 21/ 25 1004.0 7/11 HUDSON CANYON 2350 38 48 1006.4 8/ 7 KINGS POINT 0000 35 38 1005.6 EXECUTION ROCKS NOT AVBL CENTRAL LI SOUND 0030 38 270/ 16/ 19 N/A 3/ 4 EASTERN LI SOUND 0000 39 42 280/ 16/ 21 N/A ROBBINS REEF 0000 34 1005.8 $$ >>>>>>>>>>>>>>>>>>>>>>>>>>>> KEY <<<<<<<<<<<<<<<<<<<<<<<<<<< > < > SKY/WX - SKY CONDITION/PRESENT WEATHER < > TMP - TEMPERATURE IN FAHRENHEIT < > DP - DEWPOINT IN FAHRENHEIT < > RH - RELATIVE HUMIDITY IN PERCENT < > WIND - DIRECTION AND SPEED IN MPH < > PRES - MEAN SEA LEVEL PRESSURE IN INCHES OF HG < > WCI - WIND CHILL INDEX < > VSB - VISIBILITY IN MILES < > HX - HEAT INDEX < > TC - TEMPERATURE IN CELSIUS < > VRB - VARIABLE WIND DIRECTION < > < >>>>>>>>>>>>>>>>>>>>>>>>>>>> KEY <<<<<<<<<<<<<<<<<<<<<<<<<<<

USA.gov is the U.S. government's official web portal to all federal, state and local government web resources and services.